sat.trackr.live / text

‹ back to catalog

STARLINK-34866

NORAD 65189 · 2025-175R

PAYLOAD ACTIVE UNKNOWN

§ Identity

Operator
Country
US
Launch date
2025-08-14
Launch site
AFWTR
Launch vehicle
Mass (kg)
RCS (m²)

Purposes: comms

External: N2YO · Heavens-Above · Gunter

§ Orbital elements

Epoch: 2026-05-25T03:06:02.873088Z

Period
95.64 min
Inclination
97.4526°
Eccentricity
0.0001867
Mean motion
15.05649537 rev/d
Perigee alt
548.2 km
Apogee alt
550.8 km
Semi-major
6,927.6 km
B*
7.9628e-4
RAAN
17.6452°
Arg perigee
83.7900°
Mean anomaly
276.3540°
Rev number
4,414

§ Raw data

STARLINK-348661 65189U 25175R   26145.12919992  .00011449  00000+0  79628-3 0  99922 65189  97.4526  17.6452 0001867  83.7900 276.3540 15.05649537 44143

JSON: /api/v1/satellites/65189 · /tle

For live sub-satellite position, see the globe view (requires WebGL).

§ Visibility from observer

Set your observer location to see the next 7 days of passes ≥ 10°. The values pass through the URL so the page stays shareable.

No JS? Fill the form by hand. The geolocation button needs JavaScript.